Denison, IA

3:12 AM CST on February 12, 2016 (GMT -0600)
Denison Municipal

Weather History for KDNS - May, 2013

Change the Weather History Date:

Sunday, May 19, 2013

  Actual Average Record
Temperature  
Mean Temperature 68 °F -  
Max Temperature 77 °F 69 °F - (-1)
Min Temperature 60 °F 49 °F - (-1)
Cooling Degree Days 4    
Growing Degree Days 18 (Base 50)    
Moisture  
Dew Point 61 °F    
Average Humidity 87    
Maximum Humidity 100    
Minimum Humidity 57    
Precipitation  
Precipitation 0.44 in - - ()
Sea Level Pressure  
Sea Level Pressure 29.65 in    
Wind  
Wind Speed 9 mph (South)    
Max Wind Speed 23 mph    
Max Gust Speed 28 mph    
Visibility 8 miles    
Events Rain    
Averages and records for this station are not official NWS values.
T = Trace of Precipitation, MM = Missing Value Source: NWS Daily Summary

Daily Weather History Graph

Daily Weather History Graph

Search for Another Location

Airport or City:

Trip Planner

Search our weather history database for the weather conditions in past years. The results will help you decide how hot, cold, wet, or windy it might be!

Date:

Astronomy

May. 19, 2013 Rise Set
Actual Time 5:57 AM CDT 8:39 PM CDT
Civil Twilight 5:24 AM CDT 9:11 PM CDT
Nautical Twilight 4:44 AM CDT 9:52 PM CDT
Astronomical Twilight 3:57 AM CDT 10:39 PM CDT
Moon 2:39 PM CDT (5/19) 2:27 AM CDT (5/19)
Length of Visible Light 15h 47m
Length of Day
14h 42m
Waxing Gibbous, 65% of the Moon is Illuminated
May 19
Waxing Gibbous
May 24
Full
May 31
Last Quarter
Jun 8
New
Jun 16
First Quarter

Hourly Weather History & Observations

Time (CDT) Temp. Dew Point Humidity Pressure Visibility Wind Dir Wind Speed Gust Speed Precip Events Conditions
12:15 AM 73.4 °F 64.4 °F 73% 29.74 in 10.0 mi SSE 12.7 mph 19.6 mph N/A   Overcast
12:35 AM 73.4 °F 64.4 °F 73% 29.75 in 10.0 mi SSE 13.8 mph - N/A   Overcast
12:55 AM 73.4 °F 64.4 °F 73% 29.72 in 10.0 mi SE 10.4 mph 20.7 mph N/A   Overcast
1:15 AM 71.6 °F 60.8 °F 69% 29.76 in 10.0 mi SW 18.4 mph 24.2 mph N/A   Overcast
1:35 AM 68.0 °F 60.8 °F 78% 29.75 in 10.0 mi WNW 8.1 mph - N/A   Overcast
1:55 AM 66.2 °F 62.6 °F 88% 29.75 in 4.0 mi WSW 9.2 mph - 0.03 in Rain Light Rain
2:15 AM 64.4 °F 62.6 °F 94% 29.78 in 5.0 mi SSW 9.2 mph - N/A Rain Light Rain
2:35 AM 64.4 °F 62.6 °F 94% 29.78 in 4.0 mi SW 9.2 mph - N/A Rain Rain
2:55 AM 62.6 °F 62.6 °F 100% 29.72 in 9.0 mi West 6.9 mph - 0.17 in Rain Light Rain
3:15 AM 62.6 °F 62.6 °F 100% 29.70 in 10.0 mi ENE 5.8 mph - N/A   Mostly Cloudy
3:35 AM 62.6 °F 62.6 °F 100% 29.67 in 10.0 mi East 6.9 mph - N/A   Mostly Cloudy
3:55 AM 62.6 °F 62.6 °F 100% 29.68 in 10.0 mi ESE 6.9 mph - N/A   Mostly Cloudy
4:15 AM 62.6 °F 62.6 °F 100% 29.67 in 10.0 mi WNW 5.8 mph - N/A   Clear
4:35 AM 62.6 °F 62.6 °F 100% 29.67 in 8.0 mi Calm Calm - N/A   Scattered Clouds
4:55 AM 62.6 °F 62.6 °F 100% 29.65 in 8.0 mi Calm Calm - N/A   Partly Cloudy
5:15 AM 62.6 °F 62.6 °F 100% 29.64 in 8.0 mi SSE 5.8 mph - N/A   Clear
5:35 AM 62.6 °F 60.8 °F 94% 29.64 in 10.0 mi SE 5.8 mph - N/A   Clear
5:55 AM 60.8 °F 60.8 °F 100% 29.65 in 9.0 mi SE 4.6 mph - N/A   Clear
6:15 AM 62.6 °F 60.8 °F 94% 29.67 in 10.0 mi Calm Calm - N/A   Clear
6:35 AM 62.6 °F 60.8 °F 94% 29.70 in 10.0 mi South 3.5 mph - N/A   Clear
7:15 AM 60.8 °F 60.8 °F 100% 29.71 in 6.0 mi Variable 3.5 mph - N/A   Clear
7:35 AM 62.6 °F 60.8 °F 94% 29.69 in 10.0 mi East 4.6 mph - N/A   Clear
7:55 AM 64.4 °F 62.6 °F 94% 29.65 in 10.0 mi NE 5.8 mph - N/A   Clear
8:15 AM 64.4 °F 62.6 °F 94% 29.66 in 10.0 mi East 3.5 mph - N/A   Clear
8:35 AM 66.2 °F 62.6 °F 88% 29.67 in 10.0 mi South 9.2 mph - N/A   Clear
8:55 AM 64.4 °F 62.6 °F 94% 29.69 in - South 5.8 mph - N/A   Unknown
9:15 AM 64.4 °F 60.8 °F 88% 29.70 in 9.0 mi South 6.9 mph 12.7 mph N/A Rain Light Rain
9:55 AM 64.4 °F 62.6 °F 94% 29.70 in 1.5 mi South 11.5 mph 17.3 mph 0.06 in   Overcast
10:15 AM 64.4 °F 62.6 °F 94% 29.69 in 6.0 mi South 10.4 mph 16.1 mph N/A Rain Light Rain
10:35 AM 64.4 °F 62.6 °F 94% 29.68 in 3.0 mi SSW 8.1 mph - N/A Rain Light Rain
10:55 AM 64.4 °F 64.4 °F 100% 29.68 in 9.0 mi SSW 8.1 mph - 0.02 in   Mostly Cloudy
11:15 AM 66.2 °F 64.4 °F 94% 29.68 in 10.0 mi SW 6.9 mph - N/A   Overcast
11:35 AM 66.2 °F 62.6 °F 88% 29.68 in 10.0 mi SSW 5.8 mph - N/A   Overcast
11:55 AM 64.4 °F 62.6 °F 94% 29.69 in 8.0 mi WSW 6.9 mph - N/A   Mostly Cloudy
12:15 PM 64.4 °F 64.4 °F 100% 29.68 in 1.8 mi Variable 6.9 mph - N/A Rain Light Rain
12:35 PM 66.2 °F 64.4 °F 94% 29.67 in 5.0 mi South 3.5 mph - N/A Rain Light Rain
12:55 PM 68.0 °F 66.2 °F 94% 29.66 in 7.0 mi South 8.1 mph - 0.05 in Rain Light Rain
1:15 PM 68.0 °F 66.2 °F 94% 29.65 in 9.0 mi South 5.8 mph - N/A   Clear
1:35 PM 68.0 °F 64.4 °F 88% 29.66 in 9.0 mi South 8.1 mph - N/A   Scattered Clouds
2:15 PM 73.4 °F 66.2 °F 78% 29.65 in 10.0 mi South 11.5 mph - N/A   Partly Cloudy
2:35 PM 73.4 °F 64.4 °F 73% 29.64 in 10.0 mi South 9.2 mph 17.3 mph N/A   Partly Cloudy
2:55 PM 75.2 °F 64.4 °F 69% 29.63 in 10.0 mi Variable 6.9 mph - N/A   Clear
3:15 PM 77.0 °F 62.6 °F 61% 29.63 in 10.0 mi Variable 5.8 mph - N/A   Clear
3:35 PM 77.0 °F 60.8 °F 57% 29.63 in 10.0 mi SSW 8.1 mph - N/A   Scattered Clouds
3:55 PM 77.0 °F 60.8 °F 57% 29.62 in 10.0 mi SSW 4.6 mph - N/A   Mostly Cloudy
4:15 PM 73.4 °F 64.4 °F 73% 29.61 in 2.0 mi SSW 6.9 mph - N/A Rain Rain
4:35 PM 68.0 °F 62.6 °F 83% 29.64 in 5.0 mi West 16.1 mph 24.2 mph N/A   Haze
4:55 PM 64.4 °F 57.2 °F 77% 29.67 in 4.0 mi WSW 19.6 mph 27.6 mph 0.05 in Rain Light Rain
5:15 PM 62.6 °F 57.2 °F 82% 29.63 in 3.0 mi West 11.5 mph 25.3 mph N/A Rain Light Rain
5:35 PM 62.6 °F 57.2 °F 82% 29.55 in 3.0 mi NNW 19.6 mph - N/A Rain Rain
5:55 PM 62.6 °F 57.2 °F 82% 29.57 in 10.0 mi Variable 4.6 mph - 0.06 in   Scattered Clouds
6:15 PM 62.6 °F 57.2 °F 82% 29.56 in 10.0 mi East 6.9 mph 15.0 mph N/A   Clear
6:35 PM 62.6 °F 59.0 °F 88% 29.57 in 10.0 mi ESE 10.4 mph - N/A   Scattered Clouds
6:55 PM 62.6 °F 59.0 °F 88% 29.53 in 7.0 mi East 13.8 mph - N/A Rain Light Rain
7:15 PM 64.4 °F 59.0 °F 83% 29.53 in 10.0 mi East 12.7 mph 20.7 mph N/A   Clear
7:35 PM 64.4 °F 59.0 °F 83% 29.57 in 10.0 mi WSW 15.0 mph - N/A   Clear
7:55 PM 66.2 °F 59.0 °F 78% 29.58 in 10.0 mi Calm Calm - N/A   Clear
8:15 PM 64.4 °F 59.0 °F 83% 29.56 in 10.0 mi Calm Calm - N/A   Clear
8:35 PM 62.6 °F 59.0 °F 88% 29.55 in 10.0 mi ESE 4.6 mph - N/A   Clear
8:55 PM 62.6 °F 59.0 °F 88% 29.53 in 10.0 mi ESE 6.9 mph - N/A   Clear
9:15 PM 62.6 °F 57.2 °F 82% 29.49 in 10.0 mi ESE 17.3 mph - N/A   Scattered Clouds
9:35 PM 62.6 °F 59.0 °F 88% 29.54 in 10.0 mi SW 9.2 mph 21.9 mph N/A   Mostly Cloudy
9:55 PM 62.6 °F 59.0 °F 88% 29.56 in 10.0 mi West 6.9 mph - N/A   Mostly Cloudy
10:15 PM 64.4 °F 57.2 °F 77% 29.60 in 10.0 mi WSW 23.0 mph - N/A   Overcast
10:35 PM 60.8 °F 55.4 °F 82% 29.61 in 7.0 mi WSW 12.7 mph 24.2 mph N/A Rain Light Rain
11:15 PM 60.8 °F 55.4 °F 82% 29.59 in 10.0 mi SW 10.4 mph - N/A Rain Light Rain
11:35 PM 60.8 °F 55.4 °F 82% 29.58 in 9.0 mi WSW 5.8 mph - N/A Rain Light Rain
11:55 PM 60.8 °F 55.4 °F 82% 29.54 in 10.0 mi Calm Calm - N/A   Mostly Cloudy